ATLAS 5 CENTAUR DEB, 43984

Orbit data source: Space-Track

ATLAS 5 CENTAUR DEB, 43984 is space debris in HEO originally from a launch on Wed, 17 Sep 2014 UTC launched from the Air Force Eastern Test Range (AFETR). Debris objects in space refer to the collection of defunct objects orbiting the Earth. Examples of debris include non-operational satellites, rocket bodies, and fragments generated from explosions, collisions, or faulty payload assembly.

Loading next visibility...
Identifier
43984, 2014-055AP
Orbit
HEO
Country
Flag of USUS
Related business
Flag of USUnited Launch Alliance/Lockheed Martin (US)
Manufacturer
Unknown
Mission
Spacecraft
Bus & Motor
Unknown
Mass
Unknown
Launch date (UTC)
2014-09-17 (12 years ago)
Launch vehicle
Unknown
Launch site
Air Force Eastern Test Range (AFETR)
Object type
Payload
Rocket body
Debris
Shape & HBR
Unknown shape, 1.1 m
Radar Cross Section
Large (>1 m²)

Expand to show TLE details & history
Last TLE update: 1 week ago

TLE from 1 week ago
0 ATLAS 5 CENTAUR DEB
1 43984U 14055AP  26166.95688250 -.00000051  00000-0  00000-0 0  9994
2 43984  21.0782  92.9341 5103055 254.4019  45.6959  1.91692363 54403
Epoch: 2026-06-15T22:57Z
TLE epoch observation values (Epoch: 2026-06-15T22:57:54.648Z)
Latitude
0.00007°
Longitude
-155.85761°
Altitude
17,115.026 km
Speed
4.401 km/s
True Right ascension
06h 11m 25s
True Declination
0° 00' 00"
Sunlit
Object was in daylight at epoch
Visualization orbit readout
Latitude
Unknown
Longitude
Unknown
Altitude
Unknown
Speed
Unknown
Apparent Right ascension
Unknown
Apparent Declination
Unknown
Sunlit
N/A
Visualization observer readout
Local Sidereal Time
00:50:00
Azimuth
Unknown
Elevation
Unknown
Doppler factor
Unknown
Orbital elements
Apogee altitude
34,967.471 km
Perigee altitude
7,027.573 km
Semi-major axis
27,375.659 km
Eccentricity
0.51031
Inclination
21.0782°
RAAN
92.9341°
Arg. of periapsis
254.4019°
True anomaly
105.61601°
Mean anomaly
45.6959°
Eccentric anomaly
73.76887°
Mean motion
0.47918 °/min
Orbital period
751.29 mins
BSTAR
0
Loading maneuver chart data...
Computing Atmospheric mass density...

Documentation

Showing up to 5 results
|